• In Hungary
  • List of Countries
  • For 7 days
  • Water Temperature
  • Satellite Maps
  • Weather Map
  • News
  • Weather Widgets
  • user-avatar
    Login

    Hourly Weather Caracas

    Today, 22 August, Wednesday

    Time Temperature Precipitation Wind Pressure Humidity
    00:00 +18°C° 0.8 mm 3 mps 651 mmHg 96%
    01:00 +17°C° 0.8 mm 3 mps 650 mmHg 96%
    02:00 +17°C° 0.8 mm 3 mps 650 mmHg 96%
    03:00 +17°C° 0.1 mm 3 mps 650 mmHg 96%
    04:00 +17°C° 0.1 mm 3 mps 650 mmHg 96%
    05:00 +17°C° 0.1 mm 2 mps 650 mmHg 95%
    06:00 +17°C° 0.4 mm 2 mps 650 mmHg 93%
    07:00 +18°C° 0.4 mm 2 mps 651 mmHg 92%
    08:00 +18°C° 0.4 mm 2 mps 651 mmHg 90%
    09:00 +20°C° 0.3 mm 2 mps 652 mmHg 83%
    10:00 +23°C° 0.3 mm 2 mps 652 mmHg 76%
    11:00 +24°C° 0.3 mm 2 mps 652 mmHg 69%
    12:00 +24°C° 1.5 mm 2 mps 652 mmHg 74%
    13:00 +24°C° 1.5 mm 2 mps 651 mmHg 80%
    14:00 +24°C° 1.5 mm 2 mps 651 mmHg 85%
    15:00 +23°C° 1.5 mm 2 mps 650 mmHg 86%
    16:00 +23°C° 1.5 mm 2 mps 650 mmHg 87%
    17:00 +21°C° 1.5 mm 2 mps 649 mmHg 88%
    18:00 +20°C° 0.6 mm 2 mps 649 mmHg 89%
    19:00 +19°C° 0.6 mm 2 mps 649 mmHg 91%
    20:00 +18°C° 0.6 mm 2 mps 649 mmHg 92%
    21:00 +18°C° 0.7 mm 2 mps 650 mmHg 92%
    22:00 +18°C° 0.7 mm 2 mps 650 mmHg 92%
    23:00 +18°C° 0.7 mm 2 mps 650 mmHg 91%

    Tomorrow, 23 August, Thursday

    Time Temperature Precipitation Wind Pressure Humidity
    00:00 +17°C° 0.1 mm 2 mps 650 mmHg 91%
    01:00 +17°C° 0.1 mm 2 mps 649 mmHg 90%
    02:00 +17°C° 0.1 mm 2 mps 649 mmHg 89%
    03:00 +17°C° 0.3 mm 2 mps 649 mmHg 89%
    04:00 +16°C° 0.3 mm 2 mps 649 mmHg 89%
    05:00 +16°C° 0.3 mm 2 mps 649 mmHg 89%
    06:00 +17°C° 0.5 mm 2 mps 649 mmHg 87%
    07:00 +18°C° 0.5 mm 2 mps 650 mmHg 85%
    08:00 +19°C° 0.5 mm 2 mps 650 mmHg 83%
    09:00 +21°C° 0.2 mm 2 mps 651 mmHg 79%
    10:00 +24°C° 0.2 mm 2 mps 652 mmHg 74%
    11:00 +26°C° 0.2 mm 2 mps 652 mmHg 69%
    12:00 +25°C° 1.3 mm 2 mps 651 mmHg 73%
    13:00 +25°C° 1.3 mm 2 mps 651 mmHg 78%
    14:00 +24°C° 1.3 mm 2 mps 650 mmHg 82%
    15:00 +23°C° 1.8 mm 2 mps 649 mmHg 84%
    16:00 +23°C° 1.8 mm 2 mps 649 mmHg 86%
    17:00 +21°C° 1.8 mm 2 mps 648 mmHg 88%
    18:00 +20°C° 1 mm 2 mps 648 mmHg 90%
    19:00 +19°C° 1 mm 2 mps 649 mmHg 91%
    20:00 +18°C° 1 mm 2 mps 649 mmHg 93%
    21:00 +18°C° 0.4 mm 2 mps 649 mmHg 93%
    22:00 +18°C° 0.4 mm 2 mps 649 mmHg 93%
    23:00 +18°C° 0.4 mm 2 mps 650 mmHg 93%

    Day after tomorrow, 24 August, Friday

    Time Temperature Precipitation Wind Pressure Humidity
    00:00 +18°C° 0.2 mm 2 mps 649 mmHg 93%
    01:00 +17°C° 0.2 mm 2 mps 649 mmHg 93%
    02:00 +17°C° 0.2 mm 2 mps 648 mmHg 92%
    03:00 +17°C° 0 mm 2 mps 648 mmHg 92%
    04:00 +17°C° 0 mm 2 mps 648 mmHg 91%
    05:00 +16°C° 0 mm 2 mps 648 mmHg 91%
    06:00 +17°C° 0.3 mm 2 mps 649 mmHg 89%
    07:00 +18°C° 0.3 mm 2 mps 649 mmHg 87%
    08:00 +19°C° 0.3 mm 2 mps 650 mmHg 85%
    09:00 +21°C° 0.2 mm 2 mps 650 mmHg 80%
    10:00 +24°C° 0.2 mm 2 mps 651 mmHg 75%
    11:00 +25°C° 0.2 mm 2 mps 651 mmHg 70%
    12:00 +25°C° 1.6 mm 2 mps 651 mmHg 74%
    13:00 +24°C° 1.6 mm 2 mps 650 mmHg 78%
    14:00 +24°C° 1.6 mm 2 mps 650 mmHg 83%
    15:00 +23°C° 2.2 mm 2 mps 649 mmHg 85%
    16:00 +23°C° 2.2 mm 2 mps 649 mmHg 87%
    17:00 +21°C° 2.2 mm 2 mps 648 mmHg 90%
    18:00 +20°C° 1.7 mm 2 mps 648 mmHg 91%
    19:00 +19°C° 1.7 mm 2 mps 649 mmHg 92%
    20:00 +18°C° 1.7 mm 2 mps 649 mmHg 94%
    21:00 +18°C° 0.2 mm 2 mps 649 mmHg 94%
    22:00 +18°C° 0.2 mm 2 mps 650 mmHg 95%
    23:00 +18°C° 0.2 mm 2 mps 650 mmHg 95%

    25 August, Saturday

    Time Temperature Precipitation Wind Pressure Humidity
    00:00 +18°C° 0.1 mm 2 mps 650 mmHg 95%
    01:00 +18°C° 0.1 mm 2 mps 649 mmHg 95%
    02:00 +17°C° 0.1 mm 2 mps 649 mmHg 95%
    03:00 +17°C° 0.5 mm 2 mps 649 mmHg 94%
    04:00 +17°C° 0.5 mm 2 mps 649 mmHg 94%
    05:00 +17°C° 0.5 mm 2 mps 649 mmHg 93%
    06:00 +17°C° 0.7 mm 2 mps 649 mmHg 92%
    07:00 +18°C° 0.7 mm 2 mps 650 mmHg 91%
    08:00 +19°C° 0.7 mm 2 mps 651 mmHg 90%
    09:00 +20°C° 0.6 mm 2 mps 651 mmHg 86%
    10:00 +21°C° 0.6 mm 2 mps 651 mmHg 83%
    11:00 +24°C° 0.6 mm 2 mps 652 mmHg 80%
    12:00 +24°C° 1.8 mm 2 mps 651 mmHg 82%
    13:00 +23°C° 1.8 mm 2 mps 651 mmHg 84%
    14:00 +23°C° 1.8 mm 2 mps 650 mmHg 86%
    15:00 +23°C° 2.4 mm 2 mps 650 mmHg 87%
    16:00 +21°C° 2.4 mm 2 mps 649 mmHg 89%
    17:00 +21°C° 2.4 mm 2 mps 649 mmHg 91%
    18:00 +20°C° 1.8 mm 2 mps 649 mmHg 92%
    19:00 +19°C° 1.8 mm 2 mps 650 mmHg 93%
    20:00 +18°C° 1.8 mm 2 mps 650 mmHg 94%
    21:00 +18°C° 1 mm 2 mps 650 mmHg 94%
    22:00 +18°C° 1 mm 2 mps 650 mmHg 94%
    23:00 +18°C° 1 mm 2 mps 651 mmHg 94%

    26 August, Sunday

    Time Temperature Precipitation Wind Pressure Humidity
    00:00 +17°C° 1 mm 2 mps 650 mmHg 94%
    01:00 +17°C° 1 mm 2 mps 650 mmHg 94%
    02:00 +17°C° 1 mm 2 mps 649 mmHg 94%
    03:00 +17°C° 1.9 mm 2 mps 649 mmHg 94%
    04:00 +17°C° 1.9 mm 2 mps 649 mmHg 93%
    05:00 +17°C° 1.9 mm 2 mps 649 mmHg 93%
    06:00 +17°C° 1.6 mm 2 mps 650 mmHg 93%
    07:00 +17°C° 1.6 mm 2 mps 650 mmHg 93%
    08:00 +18°C° 1.6 mm 2 mps 651 mmHg 93%
    09:00 +18°C° 0.7 mm 2 mps 651 mmHg 91%
    10:00 +19°C° 0.7 mm 2 mps 652 mmHg 89%
    11:00 +21°C° 0.7 mm 1 mps 652 mmHg 88%
    12:00 +22°C° 1.1 mm 1 mps 651 mmHg 86%
    13:00 +22°C° 1.1 mm 1 mps 651 mmHg 85%
    14:00 +22°C° 1.1 mm 1 mps 650 mmHg 83%
    15:00 +22°C° 1.5 mm 1 mps 650 mmHg 85%
    16:00 +22°C° 1.5 mm 1 mps 650 mmHg 86%
    17:00 +21°C° 1.5 mm 1 mps 650 mmHg 88%
    18:00 +20°C° 0.9 mm 1 mps 650 mmHg 90%
    19:00 +20°C° 0.9 mm 1 mps 650 mmHg 92%
    20:00 +18°C° 0.9 mm 2 mps 650 mmHg 94%
    21:00 +18°C° 0.1 mm 2 mps 650 mmHg 93%
    22:00 +17°C° 0.1 mm 2 mps 650 mmHg 93%
    23:00 +17°C° 0.1 mm 2 mps 650 mmHg 93%

    27 August, Monday

    Time Temperature Precipitation Wind Pressure Humidity
    00:00 +17°C° 0.1 mm 2 mps 650 mmHg 92%
    01:00 +17°C° 0.1 mm 2 mps 650 mmHg 92%
    02:00 +17°C° 0.1 mm 2 mps 649 mmHg 91%
    03:00 +16°C° 0.1 mm 2 mps 649 mmHg 90%
    04:00 +16°C° 0.1 mm 2 mps 649 mmHg 89%
    05:00 +16°C° 0.1 mm 2 mps 649 mmHg 88%
    06:00 +17°C° 0.1 mm 2 mps 650 mmHg 87%
    07:00 +17°C° 0.1 mm 2 mps 650 mmHg 85%
    08:00 +18°C° 0.1 mm 2 mps 651 mmHg 83%
    09:00 +20°C° 0.1 mm 2 mps 651 mmHg 76%
    10:00 +23°C° 0.1 mm 2 mps 652 mmHg 69%
    11:00 +25°C° 0.1 mm 1 mps 652 mmHg 62%
    12:00 +25°C° 0.8 mm 2 mps 652 mmHg 67%
    13:00 +25°C° 0.8 mm 2 mps 651 mmHg 72%
    14:00 +25°C° 0.8 mm 2 mps 650 mmHg 77%
    15:00 +24°C° 1.2 mm 2 mps 650 mmHg 79%
    16:00 +23°C° 1.2 mm 2 mps 650 mmHg 81%
    17:00 +23°C° 1.2 mm 2 mps 649 mmHg 82%
    18:00 +21°C° 0.2 mm 2 mps 649 mmHg 86%
    19:00 +20°C° 0.2 mm 2 mps 650 mmHg 89%
    20:00 +19°C° 0.2 mm 2 mps 650 mmHg 92%
    21:00 +18°C° 0.1 mm 2 mps 650 mmHg 93%
    22:00 +18°C° 0.1 mm 2 mps 650 mmHg 93%
    23:00 +18°C° 0.1 mm 2 mps 650 mmHg 94%
    Show more